Miscellaneous Local Product
Issued by NWS Hastings, NE

Home | Current Version | Previous Version | Graphics & Text | Print | Product List | Glossary On
Versions: 1 2 3 4 5 6 7 8 9 10 11 12 13 14 15 16 17 18 19 20 21 22 23 24 25 26 27 28 29 30 31 32 33 34 35 36 37 38 39 40 41 42 43 44 45 46 47 48 49 50
000
AXUS43 KGID 210402
MISGRI

GID CWA HOURLY WEATHER ROUNDUP
NATIONAL WEATHER SERVICE HASTINGS NE
1000 PM CST TUE FEB 20 2018

NOTE: "FAIR" INDICATES FEW OR NO CLOUDS BELOW 12,000 FEET WITH NO
SIGNIFICANT WEATHER AND/OR OBSTRUCTIONS TO VISIBILITY.

...SOUTH CENTRAL NEBRASKA...

CITY           SKY/WX    TMP DP  RH WIND       PRES   REMARKS
GRAND ISLAND   CLEAR      9   2  73 N10       30.38R WCI  -5
KEARNEY        CLEAR      8   2  76 N9        30.39R WCI  -5
HASTINGS       CLEAR     10   2  69 N12       30.38R WCI  -5
ORD            CLEAR      1  -4  79 NW6       30.37R WCI -10
YORK           PTCLDY     9   5  85 N7        30.39R WCI  -3
AURORA         CLEAR      9   2  73 N9        30.39R WCI  -4
LEXINGTON      CLEAR      8   2  75 NW3       30.37R
HOLDREGE       CLEAR      8   4  80 N7        30.37R WCI  -3
HEBRON         PTCLDY    14   7  74 N10G17    30.41R WCI   1

...NEBRASKA PANHANDLE...

CITY           SKY/WX    TMP DP  RH WIND       PRES   REMARKS
CHADRON        CLEAR    -10 -17  71 SW10      30.25R WCI -29
ALLIANCE       CLEAR    -12 -14  90 W9        30.22R WCI -30
SCOTTSBLUFF    CLEAR     -6 -11  79 NE6       30.22R WCI -19
SIDNEY         CLEAR     -9 -13  83 SW8       30.22R WCI -25

...WESTERN AND NORTH CENTRAL NEBRASKA...

CITY           SKY/WX    TMP DP  RH WIND       PRES   REMARKS
VALENTINE      CLEAR    -10 -15  78 W7        30.34R WCI -25
AINSWORTH      CLEAR     -3  -8  80 W3        30.33R
ONEILL         CLEAR     -1  -5  83 W7        30.36R WCI -14
BROKEN BOW     CLEAR      1  -5  75 CALM      30.34R
IMPERIAL       CLEAR      1  -4  79 W6        30.31R WCI -10
NORTH PLATTE   CLEAR     -3 -10  72 CALM      30.35R
MCCOOK         CLEAR      8   3  80 NW5       30.36R WCI   0

...EASTERN NEBRASKA...

CITY           SKY/WX    TMP DP  RH WIND       PRES   REMARKS
NORFOLK        CLEAR      6   0  76 NW9       30.38R WCI  -8
SO SIOUX CITY  CLOUDY     9   3  77 NW10      30.41R WCI  -5
TEKAMAH        CLOUDY    11   5  77 NW10      30.43R WCI  -3
COLUMBUS       CLEAR      9   4  80 NW13      30.41R WCI  -7
ALBION         PTCLDY     6   0  76 NW9       30.38R WCI  -8
OMAHA EPPLEY   PTCLDY    13   6  74 NW14      30.42R WCI  -2
OFFUTT AFB     PTCLDY    13   6  71 NW10G18   30.41R WCI   0
MILLARD        CLOUDY    15   7  71 NW6       30.43R WCI   6
LINCOLN        CLOUDY    13   4  67 N17       30.43R WCI  -4
NEBRASKA CITY  MOCLDY    15  11  85 N18       30.40R WCI  -2
BEATRICE       CLOUDY    15  10  78 N16       30.40R WCI   0
FALLS CITY     PTCLDY    18  10  71 N13G21    30.39R WCI   5

...NORTHERN KANSAS...

CITY           SKY/WX    TMP DP  RH WIND       PRES   REMARKS
GOODLAND       MOCLDY     5  -1  76 W7        30.28R WCI  -7
HILL CITY      CLOUDY    14   3  61 N10       30.36R WCI   1
NORTON         CLEAR     10   0  61 N9        30.35R WCI  -2
PHILLIPSBURG   CLEAR     16   3  57 N9        30.40R WCI   4
SMITH CENTER   PTCLDY    12   3  67 N14       30.40R WCI  -3
BELOIT         MOCLDY    16   7  67 CALM      30.40R
HAYS           CLOUDY    15   6  67 N12       30.37R WCI   2
RUSSELL        CLOUDY    16   6  65 N10       30.36R WCI   4
CONCORDIA      CLEAR     15   7  70 N13       30.39R WCI   1
SALINA         CLOUDY    20  11  68 N15       30.39R WCI   6
TOPEKA         CLOUDY    20  15  81 N9        30.38R WCI   9



USA.gov is the U.S. government's official web portal to all federal, state and local government web resources and services.